| time (UTC) | temp C | wind direction | speed KPH | gust KPH | rain 1hr cm | rain 24hr cm | rain mn cm | humidity % | barometer mb |
| 20260510201511 | 25 | 284 | 0.0 | 0.0 | 0.00 | 0.48 | 0.03 | 52 | 1011.6 |
| 20260510200009 | 25 | 311 | 0.0 | 0.0 | 0.00 | 0.48 | 0.03 | 51 | 1011.8 |
| 20260510194509 | 25 | 28 | 0.0 | 0.0 | 0.00 | 0.48 | 0.03 | 54 | 1011.9 |
| 20260510193007 | 25 | 248 | 0.0 | 0.0 | 0.00 | 0.48 | 0.03 | 53 | 1011.9 |
| 20260510191507 | 25 | 150 | 0.0 | 0.0 | 0.00 | 0.48 | 0.03 | 56 | 1011.9 |
| 20260510190012 | 24 | 234 | 0.0 | 0.0 | 0.00 | 0.48 | 0.03 | 55 | 1012.1 |
| 20260510184518 | 24 | 160 | 0.0 | 0.0 | 0.00 | 0.48 | 0.03 | 53 | 1012.3 |
| 20260510183006 | 25 | 217 | 0.0 | 0.0 | 0.00 | 0.48 | 0.03 | 52 | 1012.1 |
| 20260510181506 | 25 | 186 | 0.0 | 0.0 | 0.00 | 0.48 | 0.03 | 50 | 1012.1 |
| 20260510180003 | 25 | 338 | 0.0 | 0.0 | 0.00 | 0.48 | 0.03 | 55 | 1012.0 |
| 20260510174600 | 25 | 183 | 0.0 | 0.0 | 0.00 | 0.48 | 0.03 | 55 | 1012.1 |
| 20260510173056 | 24 | 181 | 0.0 | 0.0 | 0.00 | 0.48 | 0.03 | 60 | 1012.1 |
| 20260510171554 | 23 | 200 | 0.0 | 0.0 | 0.00 | 0.48 | 0.03 | 61 | 1012.1 |
| 20260510170050 | 23 | 205 | 0.0 | 0.0 | 0.00 | 0.48 | 0.03 | 67 | 1012.1 |
| 20260510164545 | 22 | 206 | 0.0 | 0.0 | 0.00 | 0.48 | 0.03 | 71 | 1012.3 |
| 20260510163040 | 21 | 201 | 0.0 | 0.0 | 0.00 | 0.48 | 0.03 | 71 | 1012.3 |
| 20260510161535 | 20 | 195 | 0.0 | 0.0 | 0.00 | 0.48 | 0.03 | 74 | 1012.4 |
| 20260510160032 | 20 | 249 | 0.0 | 0.0 | 0.00 | 0.48 | 0.03 | 76 | 1012.4 |
| 20260510154532 | 19 | 5 | 0.0 | 0.0 | 0.00 | 0.48 | 0.03 | 82 | 1012.8 |
| 20260510153023 | 18 | 226 | 0.0 | 0.0 | 0.00 | 0.48 | 0.03 | 86 | 1012.7 |
| 20260510151518 | 17 | 219 | 0.0 | 0.0 | 0.00 | 0.48 | 0.03 | 91 | 1013.0 |
| 20260510150015 | 16 | 148 | 0.0 | 0.0 | 0.00 | 0.48 | 0.03 | 92 | 1012.8 |
| 20260510144510 | 15 | 125 | 0.0 | 0.0 | 0.00 | 0.48 | 0.03 | 93 | 1012.8 |
| 20260510143007 | 14 | 192 | 0.0 | 0.0 | 0.00 | 0.48 | 0.03 | 93 | 1013.0 |
| 20260510141504 | 13 | 199 | 0.0 | 0.0 | 0.00 | 0.48 | 0.03 | 93 | 1012.8 |
| 20260510140109 | 13 | 215 | 0.0 | 0.0 | 0.00 | 0.48 | 0.03 | 93 | 1012.8 |
| 20260510134605 | 12 | 221 | 0.0 | 0.0 | 0.00 | 0.48 | 0.03 | 93 | 1012.8 |
| 20260510133055 | 12 | 221 | 0.0 | 0.0 | 0.00 | 0.48 | 0.03 | 93 | 1012.8 |
| 20260510131555 | 12 | 221 | 0.0 | 0.0 | 0.00 | 0.48 | 0.03 | 93 | 1013.0 |
| 20260510130051 | 12 | 224 | 0.0 | 0.0 | 0.00 | 0.48 | 0.03 | 93 | 1012.8 |
| 20260510124546 | 11 | 175 | 0.0 | 0.0 | 0.00 | 0.48 | 0.03 | 93 | 1012.4 |
| 20260510123045 | 11 | 88 | 0.0 | 0.0 | 0.00 | 0.48 | 0.03 | 93 | 1012.5 |
| 20260510121543 | 11 | 146 | 0.0 | 0.0 | 0.00 | 0.48 | 0.03 | 93 | 1012.4 |
| 20260510120041 | 11 | 44 | 0.0 | 0.0 | 0.00 | 0.48 | 0.03 | 93 | 1012.1 |
| 20260510114539 | 11 | 44 | 0.0 | 0.0 | 0.00 | 0.48 | 0.03 | 93 | 1012.0 |
| 20260510113039 | 11 | 49 | 0.0 | 0.0 | 0.00 | 0.48 | 0.03 | 93 | 1012.0 |
| 20260510111538 | 10 | 49 | 0.0 | 0.0 | 0.00 | 0.48 | 0.03 | 93 | 1012.1 |
| 20260510110035 | 10 | 49 | 0.0 | 0.0 | 0.00 | 0.48 | 0.03 | 93 | 1011.8 |
| 20260510104527 | 10 | 49 | 0.0 | 0.0 | 0.00 | 0.48 | 0.03 | 93 | 1011.6 |
| 20260510103026 | 10 | 49 | 0.0 | 0.0 | 0.03 | 0.48 | 0.03 | 93 | 1011.4 |
| 20260510101521 | 10 | 101 | 0.0 | 0.0 | 0.03 | 0.48 | 0.03 | 93 | 1011.3 |
| 20260510100019 | 10 | 101 | 0.0 | 0.0 | 0.03 | 0.48 | 0.03 | 93 | 1011.2 |
| 20260510094515 | 9 | 42 | 0.0 | 0.0 | 0.03 | 0.48 | 0.03 | 93 | 1011.2 |
| 20260510093012 | 9 | 38 | 0.0 | 0.0 | 0.00 | 0.46 | 0.00 | 93 | 1011.3 |
| 20260510091508 | 8 | 99 | 0.0 | 0.0 | 0.00 | 0.46 | 0.00 | 92 | 1011.3 |
| 20260510090005 | 7 | 99 | 0.0 | 0.0 | 0.00 | 0.46 | 0.00 | 92 | 1011.3 |
| 20260510084506 | 6 | 275 | 0.0 | 0.0 | 0.00 | 0.46 | 0.00 | 92 | 1011.3 |
| 20260510083001 | 6 | 28 | 0.0 | 0.0 | 0.00 | 0.46 | 0.00 | 92 | 1010.7 |
| 20260510081502 | 6 | 28 | 0.0 | 0.0 | 0.00 | 0.46 | 0.00 | 92 | 1010.6 |
| 20260510080000 | 6 | 28 | 0.0 | 0.0 | 0.00 | 0.46 | 0.00 | 92 | 1010.8 |
| 20260510074605 | 6 | 28 | 0.0 | 0.0 | 0.00 | 0.46 | 0.00 | 91 | 1010.6 |
| 20260510073059 | 6 | 28 | 0.0 | 0.0 | 0.00 | 0.46 | 0.00 | 91 | 1010.6 |
| 20260510071556 | 6 | 28 | 0.0 | 0.0 | 0.00 | 0.46 | 0.00 | 91 | 1010.5 |
| 20260510070056 | 6 | 28 | 0.0 | 0.0 | 0.00 | 0.46 | 0.00 | 91 | 1010.3 |
| 20260510064604 | 6 | 28 | 0.0 | 0.0 | 0.00 | 0.46 | 0.00 | 91 | 1010.1 |
| 20260510063052 | 6 | 28 | 0.0 | 0.0 | 0.00 | 0.46 | 0.00 | 91 | 1010.0 |
| 20260510061551 | 7 | 28 | 0.0 | 0.0 | 0.00 | 0.46 | 0.00 | 91 | 1010.2 |
| 20260510060047 | 7 | 28 | 0.0 | 0.0 | 0.00 | 0.46 | 0.00 | 91 | 1010.2 |
| 20260510054546 | 7 | 28 | 0.0 | 0.0 | 0.00 | 0.46 | 0.00 | 91 | 1010.3 |
| 20260510053044 | 7 | 28 | 0.0 | 0.0 | 0.00 | 0.46 | 0.00 | 92 | 1010.5 |
| 20260510051544 | 7 | 28 | 0.0 | 0.0 | 0.00 | 0.46 | 0.00 | 92 | 1010.6 |
| 20260510050041 | 7 | 28 | 0.0 | 0.0 | 0.00 | 0.46 | 0.00 | 92 | 1010.6 |
| 20260510044554 | 7 | 28 | 0.0 | 0.0 | 0.00 | 0.46 | 0.00 | 92 | 1010.7 |
| 20260510043038 | 7 | 28 | 0.0 | 0.0 | 0.00 | 0.46 | 0.00 | 91 | 1010.7 |
| 20260510041535 | 7 | 28 | 0.0 | 0.0 | 0.00 | 0.46 | 0.00 | 91 | 1010.7 |
| 20260510040033 | 7 | 28 | 0.0 | 0.0 | 0.00 | 0.46 | 0.00 | 91 | 1010.8 |
| 20260510034533 | 7 | 28 | 0.0 | 0.0 | 0.00 | 0.46 | 0.46 | 90 | 1010.6 |
| 20260510033031 | 7 | 28 | 0.0 | 0.0 | 0.00 | 0.46 | 0.46 | 90 | 1010.5 |
| 20260510031532 | 7 | 28 | 0.0 | 0.0 | 0.00 | 0.46 | 0.46 | 90 | 1010.5 |
| 20260510030036 | 7 | 28 | 0.0 | 0.0 | 0.00 | 0.46 | 0.46 | 90 | 1010.4 |
| 20260510024527 | 8 | 28 | 0.0 | 0.0 | 0.00 | 0.46 | 0.46 | 89 | 1010.3 |
| 20260510023025 | 8 | 28 | 0.0 | 0.0 | 0.00 | 0.46 | 0.46 | 89 | 1010.3 |
| 20260510021529 | 8 | 28 | 0.0 | 0.0 | 0.00 | 0.46 | 0.46 | 89 | 1010.3 |
| 20260510020027 | 8 | 28 | 0.0 | 0.0 | 0.00 | 0.46 | 0.46 | 89 | 1010.2 |
| 20260510014524 | 9 | 28 | 0.0 | 0.0 | 0.00 | 0.46 | 0.46 | 89 | 1010.4 |
| 20260510013025 | 10 | 28 | 0.0 | 0.0 | 0.00 | 0.46 | 0.46 | 88 | 1010.4 |
| 20260510011523 | 10 | 28 | 0.0 | 0.0 | 0.00 | 0.46 | 0.46 | 88 | 1010.2 |
| 20260510010023 | 10 | 28 | 0.0 | 0.0 | 0.00 | 0.46 | 0.46 | 88 | 1010.0 |
| 20260510004522 | 11 | 28 | 0.0 | 0.0 | 0.00 | 0.46 | 0.46 | 87 | 1009.9 |
| 20260510003025 | 11 | 28 | 0.0 | 0.0 | 0.00 | 0.46 | 0.46 | 87 | 1009.7 |
| 20260510001521 | 12 | 28 | 0.0 | 0.0 | 0.00 | 0.46 | 0.46 | 88 | 1009.7 |
| 20260510000022 | 12 | 28 | 0.0 | 0.0 | 0.00 | 0.46 | 0.46 | 88 | 1009.6 |
| 20260509234520 | 12 | 28 | 0.0 | 0.0 | 0.00 | 0.46 | 0.46 | 88 | 1009.4 |
| 20260509233024 | 13 | 28 | 0.0 | 0.0 | 0.00 | 0.46 | 0.46 | 89 | 1009.6 |
| 20260509231519 | 13 | 28 | 0.0 | 0.0 | 0.00 | 0.46 | 0.46 | 90 | 1009.5 |
| 20260509230019 | 13 | 28 | 0.0 | 0.0 | 0.00 | 0.46 | 0.46 | 90 | 1009.4 |
| 20260509224519 | 13 | 88 | 0.0 | 0.0 | 0.00 | 0.46 | 0.46 | 90 | 1009.4 |
| 20260509223018 | 13 | 48 | 0.0 | 0.0 | 0.13 | 0.46 | 0.46 | 89 | 1009.4 |
| 20260509221517 | 13 | 48 | 0.0 | 0.0 | 0.33 | 0.46 | 0.46 | 88 | 1009.8 |
| 20260509220016 | 13 | 48 | 0.0 | 0.0 | 0.46 | 0.46 | 0.46 | 88 | 1009.9 |
| 20260509214516 | 13 | 349 | 0.0 | 0.0 | 0.46 | 0.46 | 0.46 | 87 | 1010.0 |
| 20260509213115 | 14 | 65 | 0.0 | 0.0 | 0.36 | 0.36 | 0.36 | 84 | 1010.2 |
| 20260509211514 | 15 | 65 | 0.0 | 0.0 | 0.13 | 0.13 | 0.13 | 81 | 1010.2 |
| 20260509210012 | 15 | 65 | 0.0 | 0.0 | 0.00 | 0.00 | 0.00 | 77 | 1010.1 |
| 20260509204513 | 15 | 19 | 0.0 | 0.0 | 0.00 | 0.00 | 0.00 | 77 | 1009.6 |
| 20260509203019 | 15 | 343 | 0.0 | 0.0 | 0.00 | 0.00 | 0.00 | 76 | 1009.9 |